Location: Hartford
(41.7640°N, 72.6860°W)
Time: 12:11:09
(UTC-04:00)

Amateur Radio Satellites - All Passes

Search period start: 01 August 2015 11:41
Search period end: 02 August 2015 11:41
Location: Hartford, 41.7640°N, 72.6860°W

Satellite Date Start Highest point End Downlink Frequencies (MHz)
Time Altitude Azimuth
YUBILEINY 01 Aug 11:42:08 11:50:58 74° 80° (E) 11:59:49 435.215
ESTCUBE 1 01 Aug 11:45:29 11:49:40 38° 97° (E) 11:53:50 437.505/2401.250
ZACube-1 01 Aug 11:51:15 11:54:53 23° 292° (WNW) 11:58:26 437.345
POLYITAN 1 01 Aug 11:59:23 12:03:01 27° 265° (W) 12:06:37 437.675
AIST 1 01 Aug 12:05:14 12:09:30 57° 94° (E) 12:13:46
Oscar 19 01 Aug 12:10:17 12:13:28 17° 63° (ENE) 12:16:51 437.125/150
FUNcube-1 01 Aug 12:13:43 12:16:22 15° 295° (WNW) 12:18:51 145.935
Cosmos 2491 01 Aug 12:15:47 12:24:19 61° 92° (E) 12:32:53 435.465 / 435.565
POPSAT HIP 1 01 Aug 12:17:09 12:20:11 19° 268° (W) 12:23:06 437.405
UWE-3 01 Aug 12:17:20 12:18:50 11° 297° (WNW) 12:20:05 435.000/436.395/437.385
BUGSAT 1 01 Aug 12:19:48 12:23:14 26° 265° (W) 12:26:36 437.445
50 SAT 01 Aug 12:20:42 12:24:32 44° 287° (WNW) 12:28:18 437.505
QB50P2 01 Aug 12:25:30 12:28:00 15° 270° (W) 12:30:22 145.880/145.840
UKube-1 01 Aug 12:26:26 12:30:23 35° 290° (WNW) 12:34:16 .
O/OREOS (USA 219) 01 Aug 12:30:32 12:34:25 27° 256° (WSW) 12:38:15 437.305
AISAT 01 Aug 12:30:42 12:34:57 47° 288° (WNW) 12:39:11 437.250
HUMSAT D 01 Aug 12:37:17 12:40:10 17° 294° (WNW) 12:42:56 437.325/437.525
CUBEBUG 1 01 Aug 12:44:16 12:48:32 58° 286° (WNW) 12:52:46 437.445
DX 1 01 Aug 12:55:43 12:58:36 17° 295° (WNW) 13:01:20 434.975-435.025
Gurwin Techsat 1B 01 Aug 13:10:27 13:14:08 20° 64° (ENE) 13:17:59 435.225
VELOX 1 01 Aug 13:10:30 13:13:46 20° 294° (WNW) 13:16:56 145.980
SPROUT 01 Aug 13:19:23 13:23:42 80° 285° (WNW) 13:28:00 437.525
Cosmos 2504 01 Aug 13:22:27 13:30:19 43° 73° (ENE) 13:38:28 435.465 / 435.565
ESTCUBE 1 01 Aug 13:22:52 13:26:18 21° 293° (WNW) 13:29:38 437.505/2401.250
AO-7 01 Aug 13:23:16 13:26:13 13° 44° (NE) 13:29:38 29.400- 29.500
TISAT 1 01 Aug 13:30:20 13:34:34 83° 103° (ESE) 13:38:47 437.305
ITAMSAT 1 01 Aug 13:30:35 13:34:49 26° 66° (ENE) 13:39:09 435.822/435.867
YUBILEINY 01 Aug 13:40:20 13:47:02 24° 278° (W) 13:53:21 435.215
AIST 1 01 Aug 13:45:34 13:47:37 13° 293° (WNW) 13:49:29
Oscar 19 01 Aug 13:47:20 13:52:24 62° 259° (W) 13:57:30 437.125/150
CUSAT 1 01 Aug 14:08:14 14:10:35 15° 72° (ENE) 14:13:31 437.405
BEESAT 01 Aug 14:13:20 14:17:46 37° 97° (E) 14:22:11 436.000
Cosmos 2491 01 Aug 14:14:14 14:21:49 30° 293° (WNW) 14:29:12 435.465 / 435.565
JAS-2 01 Aug 14:26:32 14:32:06 38° 65° (ENE) 14:38:27 435.910
SWISSCUBE 01 Aug 14:33:44 14:38:30 66° 102° (ESE) 14:43:14 437.505
Gurwin Techsat 1B 01 Aug 14:48:30 14:53:44 57° 260° (W) 14:58:59 435.225
ITUPSAT 1 01 Aug 14:54:50 14:59:40 85° 281° (WNW) 15:04:25 437.325
KKS-1 01 Aug 15:01:22 15:04:34 20° 92° (E) 15:07:53 437.445
HORYU 2 01 Aug 15:05:53 15:09:34 27° 68° (ENE) 15:13:23 437.375
ITAMSAT 1 01 Aug 15:09:15 15:14:10 40° 262° (W) 15:19:03 435.822/435.867
AO-7 01 Aug 15:09:19 15:17:18 53° 65° (ENE) 15:25:23 29.400- 29.500
Cosmos 2504 01 Aug 15:14:44 15:22:33 43° 272° (W) 15:30:26 435.465 / 435.565
DANDE 01 Aug 15:31:21 15:35:04 62° 80° (E) 15:40:03 436.750
CUSAT 1 01 Aug 15:49:02 15:53:09 53° 261° (W) 15:58:35 437.405
BEESAT 01 Aug 15:51:34 15:55:25 24° 294° (WNW) 15:59:10 436.000
STARS 01 Aug 16:09:12 16:13:36 63° 101° (E) 16:17:59 437.465
JAS-2 01 Aug 16:11:35 16:17:12 37° 267° (W) 16:23:28 435.910
SWISSCUBE 01 Aug 16:13:09 16:15:51 15° 298° (WNW) 16:18:21 437.505
GONETS M04 01 Aug 16:23:53 16:31:30 34° 68° (ENE) 16:39:18
ITUPSAT 1 01 Aug 16:36:01 16:36:51 10° 300° (WNW) 16:37:25 437.325
KKS-1 01 Aug 16:37:12 16:41:23 39° 289° (WNW) 16:45:32 437.445
HORYU 2 01 Aug 16:42:15 16:46:09 29° 265° (W) 16:50:02 437.375
CUTE-I 01 Aug 16:42:16 16:44:19 13° 59° (ENE) 16:46:39 437.470
AO-7 01 Aug 17:02:48 17:10:24 36° 264° (W) 17:17:53 29.400- 29.500
VERMONT LUNAR 01 Aug 17:17:31 17:18:16 11° 148° (SSE) 17:19:07 437.305
Cubesat XI-IV 01 Aug 17:23:34 17:28:04 29° 67° (ENE) 17:32:40 437.490
MOZHAYETS 4 01 Aug 17:30:18 17:34:58 87° 283° (WNW) 17:39:34
SO-50 01 Aug 17:32:34 17:37:09 36° 48° (NE) 17:41:40 436.795
PCSat 01 Aug 17:41:27 17:46:28 37° 51° (NE) 17:51:29 145.827
STARS 01 Aug 17:47:19 17:49:35 14° 297° (WNW) 17:51:40 437.465
Cosmos 2499 01 Aug 17:48:17 17:55:32 29° 66° (ENE) 18:03:08 435.465 / 435.565
CUBESAT XI-V 01 Aug 17:50:23 17:52:19 13° 88° (E) 17:54:30 437.345
CUTE-I 01 Aug 18:18:19 18:23:41 86° 78° (ENE) 18:29:06 437.470
GONETS M04 01 Aug 18:20:22 18:28:48 54° 269° (W) 18:37:10
HO-68 01 Aug 18:23:08 18:25:19 12° 50° (NE) 18:27:54 435.675
STRAND 1 01 Aug 18:31:49 18:32:24 10° 86° (E) 18:33:20 437.568
VERMONT LUNAR 01 Aug 18:51:30 18:54:30 38° 163° (SSE) 18:57:29 437.305
Cubesat XI-IV 01 Aug 19:03:03 19:08:03 38° 263° (W) 19:13:02 437.490
SO-50 01 Aug 19:13:16 19:17:39 31° 246° (WSW) 19:21:51 436.795
PHONESAT 2.4 01 Aug 19:14:30 19:16:16 13° 149° (SSE) 19:18:07 2401.200-2431.200
PCSat 01 Aug 19:25:00 19:29:51 33° 249° (WSW) 19:34:37 145.827
CUBESAT XI-V 01 Aug 19:25:42 19:30:17 63° 286° (WNW) 19:34:48 437.345
Cosmos 2499 01 Aug 19:40:45 19:49:24 66° 267° (W) 19:58:08 435.465 / 435.565
DOVE 4 01 Aug 19:44:10 19:47:32 25° 69° (ENE) 19:51:00 437.250
COMPASS 1 01 Aug 19:44:19 19:46:24 14° 65° (ENE) 19:48:41 437.405
BRITE-PL 01 Aug 19:49:03 19:53:28 87° 78° (ENE) 19:57:41 437.365/2234.400
CINEMA 3 01 Aug 19:51:11 19:53:13 14° 64° (ENE) 19:55:27 145.822/145.860
GOMX 1 01 Aug 19:57:24 20:01:34 60° 75° (ENE) 20:05:41 467.674
SEEDS 01 Aug 19:58:44 20:02:09 25° 69° (ENE) 20:05:40 437.485
CUTE 1.7 + AOD 2 01 Aug 20:02:02 20:05:50 33° 71° (ENE) 20:09:42 437.475
CUTE-I 01 Aug 20:02:37 20:04:36 12° 274° (W) 20:06:13 437.470
HO-68 01 Aug 20:04:48 20:11:44 59° 69° (ENE) 20:18:46 435.675
STRAND 1 01 Aug 20:07:18 20:12:27 88° 277° (W) 20:17:32 437.568
CANX-2 01 Aug 20:10:12 20:14:15 44° 73° (ENE) 20:18:23 2200.000
Oscar 11 01 Aug 20:11:13 20:12:15 11° 63° (ENE) 20:13:31 145.826/435.025
PRISM 01 Aug 20:18:03 20:22:10 72° 285° (WNW) 20:26:13 437.425
CUBEBUG 2 01 Aug 20:18:42 20:20:31 13° 64° (ENE) 20:22:34 437.445
AAUSAT CUBESAT 2 01 Aug 20:23:30 20:27:10 30° 70° (ENE) 20:30:53 437.432
VERMONT LUNAR 01 Aug 20:27:54 20:31:04 71° 178° (S) 20:34:14 437.305
ISS 01 Aug 20:34:19 20:37:08 28° 136° (SE) 20:39:59 145.825
PHONESAT 2.4 01 Aug 20:50:23 20:53:45 44° 163° (SSE) 20:57:07 2401.200-2431.200
RS-15 01 Aug 20:59:45 21:09:52 48° 111° (ESE) 21:20:27 29.354- 29.394
ZACube-1 01 Aug 21:11:08 21:14:42 28° 69° (ENE) 21:18:23 437.345
COMPASS 1 01 Aug 21:17:31 21:21:39 55° 260° (W) 21:25:50 437.405
DOVE 4 01 Aug 21:21:48 21:25:18 25° 266° (W) 21:28:45 437.250
CINEMA 3 01 Aug 21:25:58 21:30:01 53° 261° (W) 21:34:09 145.822/145.860
FUNcube-1 01 Aug 21:32:03 21:36:02 45° 73° (ENE) 21:40:10 145.935
SEEDS 01 Aug 21:34:06 21:37:50 29° 265° (W) 21:41:33 437.485
UWE-3 01 Aug 21:35:41 21:39:50 68° 75° (ENE) 21:44:07 435.000/436.395/437.385
Cosmos 2499 01 Aug 21:37:47 21:41:10 12° 284° (WNW) 21:43:53 435.465 / 435.565
CUTE 1.7 + AOD 2 01 Aug 21:38:27 21:41:49 22° 267° (W) 21:45:07 437.475
GOMX 1 01 Aug 21:39:07 21:40:13 11° 272° (W) 21:41:03 467.674
AUBIESAT-1 01 Aug 21:39:58 21:42:49 16° 94° (E) 21:45:49 437.475
DELFI C3 01 Aug 21:40:11 21:44:12 65° 75° (ENE) 21:48:15 145.870
Oscar 11 01 Aug 21:43:32 21:47:51 77° 257° (WSW) 21:52:15 145.826/435.025
UKube-1 01 Aug 21:46:20 21:49:23 20° 66° (ENE) 21:52:34 .
CANX-2 01 Aug 21:47:44 21:50:28 16° 270° (W) 21:53:03 2200.000
STRAND 1 01 Aug 21:48:57 21:50:57 12° 300° (WNW) 21:52:41 437.568
CUBEBUG 2 01 Aug 21:52:37 21:56:44 59° 260° (W) 22:00:59 437.445
HUMSAT D 01 Aug 21:52:41 21:56:22 32° 71° (ENE) 22:00:10 437.325/437.525
AISAT 01 Aug 21:53:55 21:56:32 16° 65° (ENE) 21:59:19 437.250
HO-68 01 Aug 21:54:01 21:59:57 27° 267° (W) 22:05:43 435.675
AAUSAT CUBESAT 2 01 Aug 21:59:24 22:02:47 23° 267° (W) 22:06:07 437.432
VERMONT LUNAR 01 Aug 22:04:36 22:07:40 44° 195° (SSW) 22:10:42 437.305
CUBEBUG 1 01 Aug 22:07:11 22:08:47 12° 63° (ENE) 22:10:36 437.445
ISS 01 Aug 22:10:25 22:13:29 37° 333° (NNW) 22:16:34 145.825
AIST 1 01 Aug 22:13:22 22:15:42 15° 68° (ENE) 22:18:12
DX 1 01 Aug 22:14:16 22:18:20 41° 71° (ENE) 22:22:27 434.975-435.025
UNISAT 6 01 Aug 22:21:01 22:23:52 16° 90° (E) 22:26:54 437.425
Cosmos 2491 01 Aug 22:26:10 22:33:29 30° 67° (ENE) 22:41:00 435.465 / 435.565
PHONESAT 2.4 01 Aug 22:28:04 22:31:34 73° 181° (S) 22:35:05 2401.200-2431.200
VELOX 1 01 Aug 22:31:08 22:35:09 36° 71° (ENE) 22:39:14 145.980
BEESAT 3 01 Aug 22:38:41 22:41:20 17° 112° (ESE) 22:44:08 437.485
M-CUBED/EXP-1 PRIME 01 Aug 22:44:21 22:49:12 86° 105° (ESE) 22:53:54 437.505
ESTCUBE 1 01 Aug 22:45:17 22:49:25 37° 71° (ENE) 22:53:37 437.505/2401.250
ZACube-1 01 Aug 22:47:33 22:51:04 25° 267° (W) 22:54:34 437.345
YUBILEINY 01 Aug 22:51:27 22:55:54 16° 78° (ENE) 23:00:57 435.215
DUCHIFAT 1 01 Aug 22:58:08 22:59:59 13° 89° (E) 23:02:03 145.980
QB50P1 01 Aug 23:01:30 23:03:52 15° 90° (E) 23:06:25 145.935-145.965
NANOSAT C BR1 01 Aug 23:02:27 23:04:49 15° 90° (E) 23:07:22 145.865
TIGRISAT 01 Aug 23:02:54 23:07:20 42° 98° (E) 23:11:49 435.000
50 SAT 01 Aug 23:04:09 23:08:02 80° 258° (WSW) 23:12:00 437.505
ANTELSAT 01 Aug 23:04:56 23:09:27 46° 98° (E) 23:14:00 437.575/2403.000
FUNcube-1 01 Aug 23:10:08 23:12:42 15° 270° (W) 23:15:07 145.935
RS-15 01 Aug 23:11:33 23:22:14 54° 315° (NW) 23:33:19 29.354- 29.394
AUBIESAT-1 01 Aug 23:13:14 23:17:55 57° 292° (WNW) 23:22:26 437.475
UKube-1 01 Aug 23:21:14 23:25:16 39° 262° (W) 23:29:20 .
AISAT 01 Aug 23:28:27 23:32:45 50° 260° (W) 23:37:03 437.250
HUMSAT D 01 Aug 23:29:01 23:32:12 21° 268° (W) 23:35:21 437.325/437.525
BEESAT 2 01 Aug 23:36:05 23:40:04 55° 119° (ESE) 23:44:07 435.950
AIST 2 01 Aug 23:38:04 23:39:58 13° 110° (ESE) 23:42:05 435.215
CUBEBUG 1 01 Aug 23:40:18 23:44:39 69° 259° (WSW) 23:48:59 437.445
VERMONT LUNAR 01 Aug 23:42:20 23:43:56 13° 210° (SSW) 23:45:28 437.305
POLYITAN 1 01 Aug 23:43:41 23:47:47 44° 98° (E) 23:51:55 437.675
ISS 01 Aug 23:48:32 23:50:36 15° 353° (N) 23:52:40 145.825
AIST 1 01 Aug 23:49:36 23:53:42 46° 267° (W) 23:57:46
DX 1 01 Aug 23:51:49 23:54:48 18° 268° (W) 23:57:40 434.975-435.025
UNISAT 6 01 Aug 23:56:24 00:01:00 53° 286° (WNW) 00:05:34 437.425
POPSAT HIP 1 02 Aug 00:00:22 00:04:37 68° 102° (ESE) 00:08:52 437.405
BUGSAT 1 02 Aug 00:00:50 00:04:41 40° 98° (E) 00:08:34 437.445
PHONESAT 2.4 02 Aug 00:06:02 00:09:24 44° 197° (SSW) 00:12:45 2401.200-2431.200
QB50P2 02 Aug 00:08:12 00:12:30 86° 103° (ESE) 00:16:47 145.880/145.840
VELOX 1 02 Aug 00:08:29 00:11:51 21° 267° (W) 00:15:06 145.980
SPROUT 02 Aug 00:13:28 00:17:43 81° 78° (ENE) 00:22:01 437.525
BEESAT 3 02 Aug 00:15:03 00:18:58 44° 308° (NW) 00:22:56 437.485
M-CUBED/EXP-1 PRIME 02 Aug 00:20:58 00:23:20 13° 304° (WNW) 00:25:28 437.505
TISAT 1 02 Aug 00:22:27 00:26:33 62° 74° (ENE) 00:30:42 437.305
Cosmos 2491 02 Aug 00:22:27 00:31:00 61° 268° (W) 00:39:28 435.465 / 435.565
ESTCUBE 1 02 Aug 00:22:53 00:26:25 22° 267° (W) 00:29:52 437.505/2401.250
ITUPSAT 1 02 Aug 00:26:50 00:29:10 14° 62° (ENE) 00:31:43 437.325
DUCHIFAT 1 02 Aug 00:32:02 00:36:11 55° 286° (WNW) 00:40:21 145.980
QB50P1 02 Aug 00:35:56 00:40:03 47° 287° (WNW) 00:44:09 145.935-145.965
NANOSAT C BR1 02 Aug 00:36:52 00:40:57 47° 287° (WNW) 00:45:02 145.865
TIGRISAT 02 Aug 00:40:14 00:43:50 22° 293° (WNW) 00:47:19 435.000
ANTELSAT 02 Aug 00:42:29 00:45:56 20° 294° (WNW) 00:49:16 437.575/2403.000
YUBILEINY 02 Aug 00:42:50 00:51:31 84° 96° (E) 01:00:20 435.215
O/OREOS (USA 219) 02 Aug 01:03:39 01:07:36 32° 105° (ESE) 01:11:38 437.305
AIST 2 02 Aug 01:13:52 01:18:05 63° 305° (NW) 01:22:20 435.215
BEESAT 2 02 Aug 01:15:34 01:18:28 18° 318° (NW) 01:21:19 435.950
BEESAT 02 Aug 01:19:55 01:24:27 45° 71° (ENE) 01:29:03 436.000
POLYITAN 1 02 Aug 01:20:31 01:23:23 17° 294° (WNW) 01:26:07 437.675
ISS 02 Aug 01:25:40 01:27:58 18° 13° (NNE) 01:30:17 145.825
RS-15 02 Aug 01:29:27 01:38:09 24° 346° (NNW) 01:47:00 29.354- 29.394
BUGSAT 1 02 Aug 01:37:10 01:39:53 17° 293° (WNW) 01:42:29 437.445
POPSAT HIP 1 02 Aug 01:38:18 01:40:00 12° 297° (WNW) 01:41:30 437.405
SWISSCUBE 02 Aug 01:40:19 01:45:07 78° 75° (ENE) 01:49:56 437.505
PHONESAT 2.4 02 Aug 01:45:03 01:46:53 13° 211° (SSW) 01:48:38 2401.200-2431.200
Cosmos 2504 02 Aug 01:54:39 02:00:24 28° 84° (E) 02:06:40 435.465 / 435.565
Oscar 19 02 Aug 01:58:33 02:03:31 45° 98° (E) 02:08:30 437.125/150
KKS-1 02 Aug 02:00:11 02:03:16 19° 66° (ENE) 02:06:29 437.445
TISAT 1 02 Aug 02:01:36 02:02:49 11° 272° (W) 02:03:47 437.305
ITUPSAT 1 02 Aug 02:01:43 02:06:32 72° 258° (WSW) 02:11:22 437.325
YUBILEINY 02 Aug 02:43:10 02:49:39 22° 299° (WNW) 02:55:50 435.215
O/OREOS (USA 219) 02 Aug 02:43:18 02:47:05 25° 303° (WNW) 02:50:49 437.305
AIST 2 02 Aug 02:56:39 02:57:34 10° 326° (NW) 02:58:20 435.215
BEESAT 02 Aug 02:59:00 03:02:33 20° 268° (W) 03:05:58 436.000
MOZHAYETS 4 02 Aug 02:59:32 03:00:12 10° 61° (ENE) 03:01:08
ISS 02 Aug 03:01:41 03:04:55 59° 31° (NNE) 03:08:08 145.825
Gurwin Techsat 1B 02 Aug 03:04:19 03:09:34 57° 100° (E) 03:14:47 435.225
STARS 02 Aug 03:06:10 03:10:26 57° 73° (ENE) 03:14:44 437.465
AO-7 02 Aug 03:13:01 03:16:51 14° 85° (E) 03:21:16 29.400- 29.500
JAS-2 02 Aug 03:19:24 03:26:34 38° 94° (E) 03:33:41 435.910
ITAMSAT 1 02 Aug 03:21:22 03:26:34 71° 102° (ESE) 03:31:43 435.822/435.867
SWISSCUBE 02 Aug 03:22:10 03:23:39 11° 273° (W) 03:24:49 437.505
KKS-1 02 Aug 03:35:27 03:39:39 41° 262° (W) 03:43:50 437.445
Oscar 19 02 Aug 03:38:32 03:42:37 23° 295° (WNW) 03:46:36 437.125/150
Cosmos 2504 02 Aug 03:45:12 03:52:10 53° 284° (WNW) 03:59:38 435.465 / 435.565
RS-15 02 Aug 03:46:30 03:55:45 27° 21° (NNE) 04:05:31 29.354- 29.394
MOZHAYETS 4 02 Aug 04:32:08 04:36:46 90° 72° (ENE) 04:41:27
HORYU 2 02 Aug 04:32:25 04:36:49 51° 100° (E) 04:41:12 437.375
ISS 02 Aug 04:38:56 04:41:04 16° 227° (SW) 04:43:07 145.825
STARS 02 Aug 04:45:09 04:47:19 13° 271° (W) 04:49:17 437.465
DANDE 02 Aug 04:45:14 04:48:29 87° 91° (E) 04:51:12 436.750
Gurwin Techsat 1B 02 Aug 04:45:19 04:49:10 20° 296° (WNW) 04:52:50 435.225
CUBESAT XI-V 02 Aug 04:54:16 04:56:41 15° 64° (ENE) 04:59:18 437.345
CUSAT 1 02 Aug 04:59:13 05:01:40 25° 284° (WNW) 05:03:54 437.405
ITAMSAT 1 02 Aug 05:02:26 05:05:32 16° 299° (WNW) 05:08:27 435.822/435.867
AO-7 02 Aug 05:02:49 05:11:12 77° 106° (ESE) 05:19:31 29.400- 29.500
JAS-2 02 Aug 05:04:14 05:11:42 49° 292° (WNW) 05:19:02 435.910
GONETS M04 02 Aug 05:25:34 05:33:14 38° 87° (E) 05:41:03
STRAND 1 02 Aug 05:46:28 05:49:46 18° 63° (ENE) 05:53:15 437.568
RS-15 02 Aug 05:59:30 06:11:09 65° 50° (NE) 06:23:17 29.354- 29.394
HORYU 2 02 Aug 06:10:08 06:13:05 17° 296° (WNW) 06:15:53 437.375
Cosmos 2499 02 Aug 06:27:47 06:32:29 19° 80° (E) 06:37:48 435.465 / 435.565
CUBESAT XI-V 02 Aug 06:29:00 06:33:40 64° 259° (W) 06:38:19 437.345
CUTE-I 02 Aug 06:35:32 06:40:18 33° 96° (E) 06:45:05 437.470
JAS-2 02 Aug 06:53:22 06:55:07 11° 310° (NW) 06:56:23 435.910
BEESAT 3 02 Aug 06:56:22 06:58:43 15° 40° (NE) 07:01:09 437.485
AO-7 02 Aug 06:56:40 07:03:18 26° 305° (NW) 07:09:39 29.400- 29.500
PRISM 02 Aug 07:07:49 07:12:01 84° 76° (ENE) 07:16:13 437.425
Cubesat XI-IV 02 Aug 07:19:32 07:24:54 85° 103° (ESE) 07:30:13 437.490
GONETS M04 02 Aug 07:21:35 07:29:56 48° 286° (WNW) 07:38:15
STRAND 1 02 Aug 07:23:28 07:28:33 61° 259° (WSW) 07:33:39 437.568
BRITE-PL 02 Aug 07:53:02 07:56:41 25° 95° (E) 08:00:38 437.365/2234.400
BEESAT 2 02 Aug 07:54:57 07:58:45 37° 50° (NE) 08:02:31 435.950
AIST 2 02 Aug 07:58:19 08:00:18 13° 37° (NE) 08:02:24 435.215
GOMX 1 02 Aug 07:58:52 08:01:55 18° 92° (E) 08:05:17 467.674
M-CUBED/EXP-1 PRIME 02 Aug 08:00:31 08:02:21 13° 56° (NE) 08:04:25 437.505
RS-15 02 Aug 08:12:30 08:23:16 41° 251° (WSW) 08:34:04 29.354- 29.394
CUTE-I 02 Aug 08:15:39 08:20:21 32° 293° (WNW) 08:24:57 437.470
Cosmos 2499 02 Aug 08:17:14 08:24:40 79° 280° (W) 08:32:45 435.465 / 435.565
PCSat 02 Aug 08:23:49 08:28:26 30° 110° (ESE) 08:33:09 145.827
AUBIESAT-1 02 Aug 08:27:22 08:30:25 20° 60° (ENE) 08:33:44 437.475
BEESAT 3 02 Aug 08:33:06 08:37:08 69° 240° (WSW) 08:41:05 437.485
COMPASS 1 02 Aug 09:01:07 09:04:26 22° 93° (E) 09:07:49 437.405
Cubesat XI-IV 02 Aug 09:01:37 09:04:21 14° 300° (WNW) 09:06:50 437.490
SEEDS 02 Aug 09:17:32 09:21:37 44° 98° (E) 09:25:41 437.485
DOVE 4 02 Aug 09:18:34 09:23:13 74° 102° (ESE) 09:28:09 437.250
HO-68 02 Aug 09:19:30 09:26:35 60° 102° (ESE) 09:33:41 435.675
CINEMA 3 02 Aug 09:19:50 09:24:08 35° 96° (E) 09:28:37 145.822/145.860
UNISAT 6 02 Aug 09:21:07 09:23:29 15° 64° (ENE) 09:26:02 437.425
CUTE 1.7 + AOD 2 02 Aug 09:22:10 09:26:27 63° 100° (E) 09:30:41 437.475
UWE-3 02 Aug 09:26:20 09:28:53 15° 89° (E) 09:31:39 435.000/436.395/437.385
SO-50 02 Aug 09:26:50 09:31:36 83° 122° (ESE) 09:36:31 436.795
CANX-2 02 Aug 09:30:42 09:35:03 88° 102° (ESE) 09:39:20 2200.000
BRITE-PL 02 Aug 09:31:22 09:35:16 31° 289° (WNW) 09:39:20 437.365/2234.400
Oscar 11 02 Aug 09:31:29 09:34:32 19° 92° (E) 09:37:43 145.826/435.025
M-CUBED/EXP-1 PRIME 02 Aug 09:32:27 09:36:29 72° 254° (WSW) 09:40:55 437.505
BEESAT 2 02 Aug 09:33:29 09:36:35 21° 247° (WSW) 09:39:34 435.950
AIST 2 02 Aug 09:35:20 09:39:33 90° 241° (WSW) 09:43:40 435.215
GOMX 1 02 Aug 09:35:56 09:40:17 46° 287° (WNW) 09:44:54 467.674
AAUSAT CUBESAT 2 02 Aug 09:40:57 09:45:05 54° 99° (E) 09:49:11 437.432
CUBEBUG 2 02 Aug 09:43:13 09:47:14 29° 95° (E) 09:51:22 437.445
DUCHIFAT 1 02 Aug 09:52:15 09:53:07 11° 63° (ENE) 09:54:14 145.980
QB50P1 02 Aug 09:55:37 09:57:17 12° 64° (ENE) 09:59:10 145.935-145.965
NANOSAT C BR1 02 Aug 09:56:20 09:58:00 12° 64° (ENE) 09:59:53 145.865
AUBIESAT-1 02 Aug 10:00:58 10:04:50 40° 258° (WSW) 10:08:59 437.475
TIGRISAT 02 Aug 10:02:04 10:06:02 36° 70° (ENE) 10:10:08 435.000
ANTELSAT 02 Aug 10:04:17 10:08:21 40° 71° (ENE) 10:12:33 437.575/2403.000
PCSat 02 Aug 10:06:38 10:11:44 40° 308° (NW) 10:16:50 145.827
Cosmos 2499 02 Aug 10:15:15 10:19:36 15° 304° (NW) 10:23:40 435.465 / 435.565
ZACube-1 02 Aug 10:34:34 10:39:05 59° 100° (E) 10:43:39 437.345
COMPASS 1 02 Aug 10:36:24 10:40:09 30° 290° (WNW) 10:43:49 437.405
POLYITAN 1 02 Aug 10:37:00 10:40:47 34° 71° (ENE) 10:44:38 437.675
50 SAT 02 Aug 10:41:20 10:42:35 11° 89° (E) 10:44:03 437.505
BUGSAT 1 02 Aug 10:51:22 10:54:51 29° 70° (ENE) 10:58:22 437.445
YUBILEINY 02 Aug 10:52:52 11:01:06 42° 72° (ENE) 11:09:24 435.215
POPSAT HIP 1 02 Aug 10:53:15 10:57:18 51° 73° (ENE) 11:01:24 437.405
DELFI C3 02 Aug 10:53:45 10:57:50 75° 283° (WNW) 11:01:50 145.870
SEEDS 02 Aug 10:54:15 10:57:06 17° 294° (WNW) 10:59:47 437.485
UNISAT 6 02 Aug 10:55:31 10:59:48 56° 260° (W) 11:04:12 437.425
FUNcube-1 02 Aug 10:55:41 11:00:16 85° 284° (WNW) 11:04:51 145.935
CINEMA 3 02 Aug 10:57:18 11:01:12 26° 291° (WNW) 11:05:09 145.822/145.860
DOVE 4 02 Aug 10:58:20 11:00:33 13° 295° (WNW) 11:02:35 437.250
CUTE 1.7 + AOD 2 02 Aug 10:59:52 11:01:53 13° 296° (WNW) 11:03:42 437.475
QB50P2 02 Aug 11:01:07 11:05:17 66° 75° (ENE) 11:09:29 145.880/145.840
UWE-3 02 Aug 11:01:16 11:05:47 56° 287° (WNW) 11:10:21 435.000/436.395/437.385
Oscar 11 02 Aug 11:06:50 11:10:55 38° 288° (WNW) 11:14:56 145.826/435.025
HO-68 02 Aug 11:07:57 11:13:56 29° 299° (WNW) 11:19:46 435.675
UKube-1 02 Aug 11:08:17 11:12:08 32° 97° (E) 11:16:01 .
SO-50 02 Aug 11:09:30 11:12:49 18° 323° (NW) 11:16:06 436.795
HUMSAT D 02 Aug 11:11:17 11:15:35 61° 100° (E) 11:19:52 437.325/437.525
O/OREOS (USA 219) 02 Aug 11:12:43 11:17:18 67° 66° (ENE) 11:21:51 437.305
AAUSAT CUBESAT 2 02 Aug 11:17:59 11:20:16 14° 295° (WNW) 11:22:23 437.432
AISAT 02 Aug 11:18:56 11:22:45 28° 95° (E) 11:26:37 437.250
CUBEBUG 2 02 Aug 11:19:48 11:23:53 30° 290° (WNW) 11:27:57 437.445
DUCHIFAT 1 02 Aug 11:24:14 11:28:24 73° 258° (WSW) 11:32:36 145.980
QB50P1 02 Aug 11:28:32 11:32:41 62° 259° (W) 11:36:52 145.935-145.965
NANOSAT C BR1 02 Aug 11:29:14 11:33:23 62° 260° (W) 11:37:33 145.865
CUBEBUG 1 02 Aug 11:29:31 11:32:45 21° 93° (E) 11:36:05 437.445
